Location: Four Corners
(38.2757°N, 122.4608°W)
Time: 20:17:59
(UTC+00:00)

Cosmos 1190 Rocket - Pass Details

Date: 08 December 2019
Orbit: 756 x 780 km, 74.1° (Epoch: 26 January)

Event Time Altitude Azimuth Distance (km) Brightness Sun altitude
Rises 03:06:40 0° 201° (SSW) 3,209 7.6 -26.2°
Reaches altitude 10° 03:09:02 10° 203° (SSW) 2,284 6.8 -26.7°
Maximum altitude 03:14:13 75° 289° (WNW) 788 4.0 -27.7°
Enters shadow 03:14:27 73° 315° (NW) 794 4.0 -27.7°
